www.pogodaiklimat.ru

Погода и климат >> Архив погоды >> Дания >> Мыс Roesnaes


ПОГОДА на Мысе Roesnaes

  • Прогноз погоды на Мысе Roesnaes
  • Монитор погоды на Мысе Roesnaes

АРХИВ ПОГОДЫ на Мысе Roesnaes

Время (UTC), дата Ветер
(напр.,м/с)
 
Видим.   Явления Облачность Т
(С)
Тd
(С)
f
(%)
Тe
(С)
Тes
(С)
Комфортность P
(гПа)
Po
(гПа)
Тmin
(С)
Tmax
(С)
R
(мм)
R24
(мм)
S
(см)
22 8.06 Ю 15 11 км н/о +13.4 +10.8 84 +9 +9 1015.7 1013.8
23 8.06 Ю 18 10 км слаб. ливневой дождь н/о +13.4 +10.6 83 +9 +9 1016.0 1014.1
00 9.06 Ю 15
{19}
11 км {ливн. осадки, дождь} н/о +13.6 +10.9 84 +10 +10 1016.0 1014.1 0.0
01 9.06 Ю 16 10 км н/о +13.9 +10.4 79 +10 +10 1015.8 1013.9
02 9.06 ЮЗ 19 10 км н/о +13.9 +10.2 78 +10 +10 1016.0 1014.1
03 9.06 ЮЗ 15 10 км н/о +13.3 +10.3 82 +9 +9 1016.8 1014.9
04 9.06 Ю 14 10 км н/о +13.3 +11.0 86 +10 +10 1017.2 1015.3
05 9.06 Ю 15 10 км н/о +13.4 +11.1 86 +10 +10 1017.8 1015.9
06 9.06 ЮЗ 13
{21}
10 км в посл. час морось {ливн. осадки, дождь} н/о +13.7 +10.6 82 +10 +10 1018.7 1016.7 +12.6 +15.2 0.0
07 9.06 ЮЗ 16 10 км н/о +14.0 +9.6 75 +10 +10 1019.0 1017.1
08 9.06 ЮЗ 15 10 км н/о +14.6 +9.8 73 +11 +11 1020.4 1018.5
09 9.06 ЮЗ 11 10 км {дымка} н/о +14.5 +9.5 72 +12 +12 1021.4 1019.5
10 9.06 ЮЗ 11 11 км н/о +15.3 +9.3 67 +13 +13 1022.0 1020.1
11 9.06 З 10 9000 м дымка н/о +15.7 +9.2 65 +14 +14 1022.2 1020.3
12 9.06 З 9 11 км {дымка} н/о +16.4 +9.5 64 +15 +15 1022.5 1020.6
13 9.06 З 7 11 км н/о +17.1 +9.3 60 +16 +16 1022.9 1021.0
14 9.06 З 5 12 км н/о +16.7 +9.4 62 +16 +16 1022.9 1021.0
15 9.06 З 3 11 км н/о +17.2 +10.4 64 +17 +17 1023.0 1021.1
16 9.06 З 2 11 км н/о +17.0 +10.6 66 +17 +17 1022.6 1020.7
17 9.06 Ю 3 12 км н/о +17.2 +10.2 63 +17 +17 1022.6 1020.7
18 9.06 Ю 2 12 км н/о +16.3 +11.3 72 +17 +17 1022.5 1020.6 +13.7 +18.0
19 9.06 ЮЗ 2 11 км н/о +15.4 +9.7 69 +16 +16 1022.5 1020.6
20 9.06 ЮЗ 2 11 км н/о +15.0 +9.4 69 +15 +15 1022.8 1020.9
21 9.06 Ю 2 11 км н/о +14.7 +9.8 72 +15 +15 1022.7 1020.8
22 9.06 ЮВ 2 11 км н/о +14.9 +9.8 72 +15 +15 1022.7 1020.8
23 9.06 В 1 12 км н/о +14.8 +8.9 68 +16 +16 1022.2 1020.3
00 10.06 ЮВ 2 11 км н/о +14.8 +10.6 76 +14 +14 1022.2 1020.3
01 10.06 ЮВ 2 11 км н/о +14.0 +12.9 93 +13 +13 1021.7 1019.8
02 10.06 ЮВ 1 11 км н/о +13.8 +10.4 80 +14 +14 1021.7 1019.8
03 10.06 штиль 0 11 км н/о +13.7 +10.2 79 +13 +13 1021.3 1019.4
04 10.06 В 1 11 км н/о +13.6 +9.9 78 +15 +15 1021.2 1019.3
05 10.06 ЮВ 2 11 км н/о +14.6 +8.4 66 +14 +14 1020.7 1018.8
06 10.06 СВ 3 11 км н/о +15.2 +11.7 80 +14 +14 1020.4 1018.5 +13.5 +16.5
07 10.06 В 5 11 км н/о +14.9 +11.5 80 +14 +14 1020.0 1018.1
08 10.06 СВ 6 11 км слаб. ливневой дождь н/о +15.2 +12.5 84 +14 +14 1019.7 1017.8
09 10.06 СВ 7 9000 м слаб. ливневой дождь н/о +14.5 +13.0 91 +12 +12 1019.5 1017.6 0.2
10 10.06 СВ 7 8000 м слаб. дождь н/о +14.4 +13.9 97 +12 +12 1019.6 1017.7 0.3
11 10.06 СВ 9 10 км слаб. дождь {морось} н/о +13.9 +13.5 97 +11 +11 1019.1 1017.2 0.3
12 10.06 СВ 10 11 км в посл. час морось {ливн. осадки, дождь} н/о +14.4 +12.5 88 +12 +12 1018.5 1016.6 0.6
13 10.06 СВ 10 10 км н/о +14.6 +12.6 88 +12 +12 1018.5 1016.6
14 10.06 СВ 10 10 км н/о +14.7 +12.4 86 +12 +12 1017.7 1015.8
15 10.06 СВ 9 10 км н/о +15.1 +12.5 84 +13 +13 1017.7 1015.8
16 10.06 СВ 10 10 км н/о +15.1 +12.8 86 +13 +13 1017.3 1015.4
17 10.06 СВ 11 10 км н/о +14.9 +13.0 88 +12 +12 1016.5 1014.6
18 10.06 СВ 10 10 км {дымка} н/о +14.9 +13.4 91 +12 +12 1016.6 1014.7 +13.8 +15.7
19 10.06 СВ 9 10 км н/о +14.8 +13.1 90 +12 +12 1016.5 1014.6
20 10.06 СВ 8 10 км н/о +15.0 +12.9 87 +13 +13 1016.5 1014.6
21 10.06 СВ 9 10 км н/о +14.9 +13.4 91 +13 +13 1015.7 1013.8
22 10.06 СВ 9 10 км н/о +14.9 +13.5 91 +13 +13 1015.6 1013.8
23 10.06 СВ 8 9000 м дымка н/о +15.1 +14.3 95 +13 +13 1014.9 1013.0
00 11.06 СВ 8 10 км {дымка} н/о +15.2 +13.9 92 +13 +13 1014.8 1012.9
01 11.06 СВ 10 11 км н/о +15.7 +12.8 83 +14 +14 1013.8 1011.9
02 11.06 СВ 10 11 км в посл. час морось {ливн. осадки, дождь} н/о +15.4 +12.9 85 +13 +13 1013.1 1011.2
03 11.06 СВ 8 11 км {ливн. осадки, дождь} н/о +15.3 +12.8 85 +13 +13 1012.8 1011.0 0.0
04 11.06 СВ 7 10 км слаб. ливневой дождь н/о +15.2 +12.9 86 +13 +13 1012.9 1011.1
05 11.06 СВ 8 10 км слаб. ливневой дождь н/о +14.6 +13.8 95 +12 +12 1012.7 1010.8 0.1
06 11.06 СВ 9 10 км {ливн. осадки, дождь} н/о +14.9 +13.5 91 +12 +12 1012.2 1010.3 +14.5 +15.7 0.1
07 11.06 СВ 10 10 км н/о +14.9 +14.3 96 +12 +12 1011.9 1010.0
08 11.06 СВ 11 9000 м дымка н/о +15.8 +13.9 88 +14 +14 1011.5 1009.6
09 11.06 В 10 10 км {дымка} н/о +16.3 +14.2 87 +14 +14 1011.3 1009.4
10 11.06 В 6 10 км н/о +16.9 +15.5 91 +16 +16 1011.7 1009.8
11 11.06 В 6 9000 м дымка н/о +17.6 +15.5 87 +17 +17 1011.4 1009.5
12 11.06 СВ 5 9000 м дымка н/о +17.6 +16.0 90 +17 +17 1011.0 1009.1
13 11.06 В 2 9000 м дымка н/о +18.7 +16.8 89 +20 +20 1011.1 1009.2
14 11.06 Ю 1 10 км слаб. ливневой дождь н/о +19.6 +16.4 82 +23 +23 комфорт 1011.3 1009.5
15 11.06 Ю 3 9000 м дымка {ливн. осадки, дождь} н/о +18.1 +16.4 90 +19 +19 1011.7 1009.8 0.0
16 11.06 ЮВ 5 10 км н/о +19.5 +16.6 83 +21 +21 комфорт 1011.9 1010.0
17 11.06 ЮВ 6 10 км н/о +19.7 +16.7 83 +22 +22 комфорт 1012.0 1010.2
18 11.06 ЮВ 4 8000 м дымка {ливн. осадки, дождь} н/о +17.4 +17.2 99 +17 +17 1012.5 1010.6 +14.6 +20.1
19 11.06 Ю 4 5000 м дымка н/о +16.8 +16.8 100 +16 +16 1012.9 1011.0
20 11.06 Ю 4 5000 м дымка н/о +16.3 +16.3 100 +16 +16 1013.8 1012.0
21 11.06 Ю 4 5000 м дымка н/о +16.4 +16.2 99 +16 +16 1014.0 1012.1
22 11.06 Ю 2 7000 м дымка н/о +16.6 +16.4 99 +17 +17 1013.6 1011.7
23 11.06 штиль 0 6000 м дымка н/о +16.6 +16.4 99 +16 +16 1014.0 1012.1
00 12.06 штиль 0 4300 м дымка н/о +16.4 +16.4 100 +16 +16 1014.0 1012.1
01 12.06 ЮВ 1 3400 м дымка н/о +16.2 +16.2 100 +18 +18 1014.1 1012.2
02 12.06 штиль 0 4000 м дымка н/о +15.9 +15.9 100 +16 +16 1014.0 1012.1
03 12.06 СВ 1 3100 м дымка н/о +15.6 +15.6 100 +17 +17 1013.5 1011.6
04 12.06 С 1 1200 м дождь н/о +15.7 +15.7 100 +16 +16 1012.5 1010.6 7
05 12.06 СВ 10 5000 м слаб. дождь н/о +15.2 +15.2 100 +13 +13 1010.2 1008.3 2
06 12.06 СВ 10 7000 м дымка {дождь} н/о +15.2 +15.2 100 +13 +13 1010.4 1008.5 +15.1 +17.4 9
07 12.06 В 4 9000 м дымка н/о +15.6 +15.6 100 +15 +15 1012.0 1010.1
08 12.06 ЮВ 3 8000 м дымка н/о +16.2 +16.2 100 +16 +16 1011.6 1009.8
09 12.06 штиль 0 8000 м дымка н/о +17.1 +16.1 94 +17 +17 1011.7 1009.8
10 12.06 ЮВ 3 10 км н/о +19.1 +16.9 87 +21 +21 комфорт 1011.7 1009.8
11 12.06 ЮЗ 4 10 км н/о +18.1 +16.2 89 +18 +18 1011.4 1009.6
12 12.06 СЗ 2 8000 м дымка н/о +16.9 +16.5 97 +17 +17 1011.3 1009.4
13 12.06 С 4 9000 м дымка н/о +17.4 +17.3 99 +17 +17 1010.6 1008.7
14 12.06 СВ 5 10 км н/о +16.7 +16.6 99 +16 +16 1009.9 1008.0
15 12.06 СВ 5 10 км н/о +17.3 +16.7 96 +17 +17 1009.1 1007.3
16 12.06 СВ 5 9000 м дымка н/о +16.3 +16.3 100 +15 +15 1008.1 1006.3
17 12.06 СВ 4 8000 м дымка н/о +16.3 +16.3 100 +15 +15 1007.6 1005.7
18 12.06 В 4 9000 м дымка н/о +16.6 +16.6 100 +16 +16 1007.9 1006.0 +15.1 +19.3
19 12.06 Ю 7 3100 м слаб. дождь н/о +16.0 +16.0 100 +14 +14 1007.9 1006.0 0.3
20 12.06 Ю 6 4100 м слаб. ливневой дождь н/о +15.4 +15.4 100 +14 +14 1007.9 1006.0 0.3
21 12.06 Ю 8 3500 м слаб. дождь н/о +15.2 +15.2 100 +13 +13 1008.0 1006.1 0.8
22 12.06 Ю 9 6000 м слаб. дождь н/о +15.0 +15.0 100 +13 +13 1008.6 1006.7 0.4
23 12.06 Ю 8 3300 м дымка {дождь} н/о +15.0 +15.0 100 +13 +13 1008.5 1006.7
00 13.06 ЮЗ 9 3600 м дымка {ливн. осадки, дождь} н/о +14.8 +14.8 100 +12 +12 1008.3 1006.4 0.4
01 13.06 Ю 6 2700 м дымка н/о +15.1 +15.1 100 +13 +13 1008.6 1006.7
02 13.06 ЮЗ 8 6000 м дымка н/о +15.1 +13.6 91 +13 +13 1009.0 1007.1
03 13.06 Ю 7 5000 м дымка н/о +14.5 +13.9 96 +12 +12 1009.5 1007.6
04 13.06 ЮЗ 7 5000 м дымка н/о +14.5 +14.0 97 +12 +12 1010.2 1008.4
05 13.06 ЮЗ 10 7000 м дымка н/о +14.6 +12.8 89 +12 +12 1011.0 1009.1
06 13.06 ЮЗ 7 7000 м дымка н/о +14.7 +12.8 88 +13 +13 1011.7 1009.8 +14.4 +17.4
07 13.06 Ю 7 7000 м дымка н/о +15.2 +13.3 88 +13 +13 1011.8 1009.9
08 13.06 Ю 6 8000 м дымка н/о +16.4 +13.7 84 +15 +15 1011.9 1010.0
09 13.06 Ю 7 9000 м дымка н/о +17.6 +14.5 82 +17 +17 1012.3 1010.4
10 13.06 Ю 9 8000 м дымка н/о +17.8 +14.6 82 +17 +17 1012.6 1010.7
11 13.06 Ю 9 9000 м дымка н/о +18.5 +14.7 79 +18 +18 1012.6 1010.8
12 13.06 Ю 9 10 км {дымка} н/о +19.0 +14.7 76 +19 +19 1012.7 1010.8
13 13.06 Ю 9 11 км н/о +19.3 +14.2 72 +20 +20 1012.8 1010.9
14 13.06 Ю 9 10 км н/о +19.6 +14.0 70 +21 +21 комфорт 1012.8 1011.0
15 13.06 Ю 9 11 км н/о +18.8 +14.5 76 +19 +19 1012.9 1011.0
16 13.06 Ю 7 11 км н/о +18.6 +14.8 79 +19 +19 1013.0 1011.1
17 13.06 СЗ 5 11 км н/о +17.8 +13.3 75 +17 +17 1013.7 1011.9
18 13.06 СВ 1 11 км {дымка} н/о +17.9 +13.0 73 +19 +19 1013.9 1012.0 +14.7 +19.8
19 13.06 В 2 11 км н/о +17.0 +12.5 75 +17 +17 1014.1 1012.2
20 13.06 ЮВ 4 11 км в посл. час морось {ливн. осадки, дождь} н/о +16.7 +14.7 88 +16 +16 1014.6 1012.7
21 13.06 С 2 11 км {ливн. осадки, дождь} н/о +15.4 +15.0 97 +15 +15 1014.9 1013.0 0.0
22 13.06 В 3 11 км н/о +15.3 +13.5 89 +15 +15 1014.3 1012.4
23 13.06 ЮВ 6 11 км н/о +15.8 +12.0 78 +15 +15 1014.7 1012.8
00 14.06 ЮВ 6 11 км {ливн. осадки, дождь} н/о +15.3 +13.5 89 +14 +14 1015.0 1013.1
01 14.06 ЮЗ 7 11 км слаб. ливневой дождь н/о +14.4 +11.7 84 +12 +12 1015.7 1013.8 0.2
02 14.06 ЮВ 4 11 км {ливн. осадки} н/о +14.6 +12.2 86 +13 +13 1015.8 1013.9
03 14.06 ЮВ 6
{20}
10 км {ливн. осадки, дождь} н/о +15.3 +15.3 100 +14 +14 1015.9 1014.0 0.2
04 14.06 Ю 7 10 км н/о +15.3 +14.9 97 +13 +13 1016.1 1014.2
05 14.06 ЮВ 6 11 км н/о +15.5 +14.2 92 +14 +14 1016.5 1014.6
06 14.06 Ю 6
{20}
11 км {ливн. осадки, дождь} н/о +16.9 +15.0 89 +16 +16 1016.8 1014.9 +13.8 +17.9
07 14.06 Ю 7 10 км н/о +17.9 +15.8 88 +17 +17 1017.4 1015.5
08 14.06 Ю 7 11 км н/о +16.8 +16.0 95 +16 +16 1017.9 1016.0
09 14.06 Ю 6 8000 м дымка н/о +18.9 +15.2 79 +20 +20 1018.0 1016.2
10 14.06 Ю 6 8000 м дымка н/о +19.8 +15.7 77 +22 +22 комфорт 1018.1 1016.2
11 14.06 Ю 7 8000 м дымка н/о +20.0 +14.4 70 +22 +22 комфорт 1018.1 1016.2
12 14.06 Ю 6 9000 м дымка н/о +20.9 +14.6 67 +24 +24 комфорт 1018.1 1016.3
13 14.06 ЮВ 3 8000 м дымка н/о +21.6 +15.2 67 +25 +25 комфорт 1017.7 1015.8
14 14.06 Ю 3 8000 м слаб. ливневой дождь н/о +18.8 +15.3 80 +20 +20 1018.0 1016.2
15 14.06 В 4 8000 м в посл. час дождь {ливн. осадки} н/о +21.3 +11.6 54 +23 +23 комфорт 1016.6 1014.7 0.0
16 14.06 В 3 8000 м слаб. ливневой дождь н/о +20.7 +12.8 61 +23 +23 комфорт 1017.0 1015.2
17 14.06 ЮВ 3 6000 м ливневой дождь н/о +16.9 +16.4 97 +17 +17 1017.9 1016.0 2
18 14.06 СВ 4 8000 м слаб. ливневой дождь н/о +17.4 +16.7 96 +17 +17 1018.0 1016.1 +16.4 +22.1 2
19 14.06 ЮВ 6 8000 м слаб. ливневой дождь н/о +17.1 +15.8 92 +16 +16 1017.3 1015.4 0.5
20 14.06 В 8 9000 м слаб. ливневой дождь н/о +16.5 +12.1 75 +15 +15 1017.6 1015.7 0.1
21 14.06 В 7
{11}
8000 м дымка {ливн. осадки} н/о +16.9 +12.6 76 +16 +16 1017.5 1015.7 0.6
22 14.06 ЮВ 8 9000 м дымка н/о +16.6 +11.8 73 +15 +15 1017.2 1015.3
23 14.06 ЮВ 7 9000 м дымка н/о +16.8 +11.5 71 +16 +16 1016.8 1014.9
00 15.06 ЮВ 7
{11}
9000 м дымка {ливн. осадки} н/о +16.6 +11.8 73 +15 +15 1016.3 1014.4
01 15.06 ЮВ 7 7000 м слаб. ливневой дождь н/о +17.2 +11.3 68 +16 +16 1015.9 1014.0
02 15.06 ЮВ 7 8000 м дымка {ливн. осадки} н/о +17.5 +11.4 67 +17 +17 1015.0 1013.2
03 15.06 ЮВ 6 9000 м дымка {ливн. осадки, дождь} н/о +17.4 +12.1 71 +17 +17 1014.5 1012.6 0.0
04 15.06 ЮВ 4 8000 м дымка н/о +17.5 +12.8 74 +17 +17 1014.1 1012.2
05 15.06 В 4 8000 м дымка н/о +16.5 +14.6 89 +16 +16 1013.8 1012.0
06 15.06 В 2 8000 м дымка {ливн. осадки, дождь} н/о +17.6 +14.6 83 +18 +18 1013.5 1011.7 +16.2 +18.9
07 15.06 СВ 4 8000 м дымка н/о +17.2 +15.6 90 +17 +17 1013.3 1011.4
08 15.06 ЮВ 5 8000 м дымка н/о +19.5 +15.2 76 +21 +21 комфорт 1013.4 1011.5
09 15.06 ЮВ 3
{14}
8000 м слаб. морось {дождь} н/о +18.2 +16.2 88 +19 +19 1013.0 1011.2 0.1
10 15.06 ЮВ 5 7000 м слаб. дождь {морось} н/о +18.7 +16.0 84 +19 +19 1013.2 1011.4 0.1
11 15.06 В 8 6000 м дождь н/о +16.7 +14.3 86 +15 +15 1011.9 1010.1 2
12 15.06 ЮВ 11-18
{18}
6000 м слаб. дождь {морось} н/о +16.0 +12.3 79 +14 +14 1010.6 1008.7 4
13 15.06 В 9 9000 м слаб. морось {дождь} н/о +17.5 +12.0 70 +16 +16 1011.5 1009.7 0.7
14 15.06 В 8 8000 м слаб. ливневой дождь {морось} н/о +16.9 +12.5 75 +16 +16 1011.1 1009.2
15 15.06 В 6
{19}
8000 м в посл. час дождь {ливн. осадки} н/о +18.3 +13.5 74 +18 +18 1010.3 1008.5 0.7
16 15.06 ЮВ 3 8000 м дымка н/о +18.9 +11.0 60 +20 +20 1011.5 1009.6
17 15.06 Ю 5 8000 м слаб. дождь н/о +17.5 +13.1 75 +17 +17 1012.3 1010.4
18 15.06 ЮВ 4
{19}
8000 м в посл. час дождь {ливн. осадки} н/о +15.5 +13.6 88 +15 +15 1011.6 1009.8 +15.5 +19.8 0.1
19 15.06 ЮВ 1 8000 м дымка н/о +16.3 +12.7 79 +17 +17 1011.4 1009.5
20 15.06 ЮВ 3 8000 м дымка н/о +16.4 +12.5 78 +16 +16 1012.0 1010.1
21 15.06 Ю 5 8000 м дымка н/о +16.1 +14.2 88 +15 +15 1012.3 1010.5
22 15.06 Ю 5 7000 м дымка н/о +15.8 +15.5 98 +15 +15 1012.5 1010.6

 

Местоположение метеостанции Мыс Roesnaes (Дания): широта 55.75 долгота 10.87 высота над уровнем моря 15 м.

В архиве по умолчанию представлена погода на Мысе Roesnaes за последнюю неделю. Архивные данные за месяц целиком и за предыдущие месяцы, начиная с января 2011 года, Вы можете получить, выбрав интересующий диапазон дат из раскрывающегося списка и нажав кнопку "Ввод!".


*Определитесь, кто Вы:
робот инопланетянин человек

Внимание! Время в таблицах - всемирное. Для получения местного времени необходимо прибавить поправку, которая равна 1 ч.

Смотрите также архив погоды в соседних городах и на ближайших метеорологических станциях:

Погода в Гнибене (Дания) (39 км)
Погода на Мысе Sletterhage (Дания) (45 км)
Погода в Оденсе (Дания) (45 км)
Погода в Хольбеке (Дания) (46 км)
Погода в Арслеве (Дания) (56 км)
Погода в Флаккебэрге (Дания) (58 км)
Погода в Орхусе (Дания) (59 км)
Погода в Тысофте (Дания) (63 км)
Погода в Тирструпе (Дания) (65 км)
Погода в Омо (Дания) (67 км)

Пояснения к столбцам:

Ветер - указаны скорость ветра в м/с - средняя за 10 мин, порывы в срок и между сроками (в фигурных скобках) и направление, откуда дует ветер: С - северный, СВ - северо-восточный, В - восточный, ЮВ - юго-восточный, Ю - южный, ЮЗ - юго-западный, З - западный, СЗ - северо-западный.
Видимость - горизонтальная дальность видимости в метрах или километрах. При видимости от 1 до 10 км при отсутствии осадков обычно наблюдается дымка, при ухудшении видимости до 1 км и менее - туман. В сухую погоду видимость может ухудшаться дымом, пылью или мглою.
Явления - указаны атмосферные явления, наблюдавшиеся в срок или в последний час перед сроком; фигурными скобками обозначены явления, наблюдавшиеся между сроками (за 1-3 часа до срока); квадратными скобками обозначены град или гололедные отложения с указанием их диаметра в мм.
Облачность - указаны через наклонную черту общая и нижняя облачность в баллах и высота нижней границы облаков в метрах; квадратными скобками обозначены формы облаков: Ci - перистые, Cs - перисто-слоистые, Cc - перисто-кучевые, Ac - высококучевые, As - высокослоистые, Sc - слоисто-кучевые, Ns - слоисто-дождевые, Cu - кучевые, Cb - кучево-дождевые. Подробнее классификацию облаков см. в Атласе облаков (PDF).
T - Температура воздуха - температура, измеренная на высоте 2 м над землей.
Td - Температура точки росы - температура, при понижении до которой содержащийся в воздухе водяной пар достигнет насыщения.
f - Относительная влажность воздуха - влажноcть воздуха, измеренная на высоте 2 м над землей.
Te - Эффективная температура - температура, которую ощущает одетый по сезону человек в тени. Характеристика душности погоды. При расчете учитывается влияние влажности воздуха и скорости ветра на теплоощущения человека.
Tes - Эффективная температура на солнце - температура, которую ощущает человек, с поправкой на солнечный нагрев. Характеристика знойности погоды. Зависит от высоты солнца над горизонтом, облачности и скорости ветра. Ночью, в пасмурную погоду, а также при ветре 12 м/с и более поправка равна нулю.
P - Атмосферное давление - приведенное к уровню моря атмосферное давление.
Po - Атмосферное давление - измеренное на уровне метеостанции атмосферное давление.
Tmin - Минимальная температура - минимум температуры воздуха на высоте 2 м над землей.
Tmax - Максимальная температура - максимум температуры воздуха на высоте 2 м над землей.
R - Количество осадков - Количество выпавших осадков за период времени, мм. При наведении курсора мыши на число - период времени, за который выпало указанное количество осадков.
R24 - Количество осадков - Количество выпавших осадков за 24 часа, мм.
S - Снежный покров - Высота снежного покрова, см. При наведении курсора мыши на число - состояние снежного покрова и степень покрытия местности в баллах.